Regional Weather Roundup
Issued by NWS Charleston, SC

Current Version | Previous Version | Graphics & Text | Print | Product List | Glossary On
Versions: 1 2 3 4 5 6 7 8 9 10 11 12 13 14 15 16 17 18 19 20 21 22 23 24 25 26 27 28 29 30 31 32 33 34 35 36 37 38 39 40 41 42 43 44 45 46 47 48 49 50
000 ASUS42 KCHS 280625 RWRCHS REGIONAL WEATHER ROUNDUP NATIONAL WEATHER SERVICE CHARLESTON SC 200 AM EDT MON JUL 28 2014 NOTE: "FAIR" INDICATES FEW OR NO CLOUDS BELOW 12,000 FEET WITH NO SIGNIFICANT WEATHER AND/OR OBSTRUCTIONS TO VISIBILITY. NOT ALL STATIONS ARE QUALITY CONTROLLED BY THE NATIONAL WEATHER SERVICE. USE DATA WITH CAUTION...ESPECIALLY DEWPOINT OBSERVATIONS. SCZ027-030-031-034>040-042>050-280700- ...SOUTH CAROLINA... CITY SKY/WX TMP DP RH WIND PRES REMARKS N CHARLESTON MOCLDY 84 75 74 SW6 29.89S HX 92 6HR MIN TEMP: 84; 6HR MAX TEMP: 90; WATERFRONT PRK N/A 86 N/A N/A SW8 N/A FORT JOHNSON NOT AVBL MOUNT PLEASANT FAIR 84 81 89 SW3 29.89S HAZE HX 98 JOHNS ISLAND CLEAR 84 79 84 SW7 29.89F HX 96 PINOPOLIS N/A 84 75 74 SW8 29.81S HX 92 MONCKS CORNER N/A 82 75 78 SW6 29.88F SUMMERVILLE NOT AVBL BEAUFORT MCAS MOCLDY 84 73 69 W9 29.90S HX 90 6HR MIN TEMP: 83; 6HR MAX TEMP: 90; BEAUFORT ARPT FAIR 86 73 66 SW13 29.90S HX 93 HILTON HEAD IS MOCLDY 84 75 74 SW8 29.92S HX 92 GEORGETOWN NOT AVBL WALTERBORO MOCLDY 81 73 78 SW6 29.90S ORANGEBURG CLOUDY 78 73 84 SW5 29.89F 6HR MIN TEMP: 78; 6HR MAX TEMP: 88; BARNWELL FAIR 81 73 78 W6 29.90F AIKEN FAIR 82 73 74 SW9 29.93F MANNING FAIR 82 73 74 SW6 29.86F KINGSTREE NOT AVBL COLUMBIA CLOUDY 84 72 67 SW8 29.87S 6HR MIN TEMP: 84; 6HR MAX TEMP: 93; SUMTER CLOUDY 82 74 76 SW10 29.84F 6HR MIN TEMP: 82; 6HR MAX TEMP: 88; FLORENCE CLOUDY 83 73 72 SW9 29.83F 6HR MIN TEMP: 83; 6HR MAX TEMP: 87; MYRTLE BEACH CLOUDY 82 73 74 SW9 29.84F N MYRTLE BEACH MOCLDY 84 73 69 SW10 29.84F HX 90 6HR MIN TEMP: 84; 6HR MAX TEMP: 86; $$ GAZ063-065-086>088-099>101-113>116-118-119-134-136>141-150-280700- ...GEORGIA... CITY SKY/WX TMP DP RH WIND PRES REMARKS SAVANNAH ARPT MOCLDY 84 71 65 SW10 29.92F 6HR MIN TEMP: 84; 6HR MAX TEMP: 92; HUNTER AAF MOCLDY 82 74 75 SW10 29.91S 6HR MIN TEMP: 82; 6HR MAX TEMP: 90; FORT STEWART MOCLDY 83 73 72 SW8 29.92S 6HR MIN TEMP: 82; 6HR MAX TEMP: 92; STATESBORO NOT AVBL SYLVANIA MOCLDY 81 76 84 CALM 29.92S CLAXTON FAIR 82 77 83 CALM 29.93S HX 91 THOMSON PTCLDY 83 77 83 SW5 29.95F HX 92 AUGUSTA-BUSH PTCLDY 81 73 76 SW7 29.90S 6HR MIN TEMP: 79; 6HR MAX TEMP: 89; AUGUSTA-DANIEL PTCLDY 84 73 69 SW3 29.92S HX 90 SWAINSBORO FAIR 82 77 83 W5 29.94F HX 91 VIDALIA N/A 81 75 83 SW8 29.94S ALMA PTCLDY 81 75 82 SW9 29.96S 6HR MIN TEMP: 81; 6HR MAX TEMP: 92; WAYCROSS PTCLDY 83 80 89 W8 29.97R HX 96 JESUP NOT AVBL BRUNSWICK MOCLDY 82 73 74 SW9 29.96R SAINT SIMONS MOCLDY 82 76 81 SW10 29.95F 6HR MIN TEMP: 82; 6HR MAX TEMP: 91; $$ SCZ027-028-034-036>038-045-046-048>050-GAZ119-141-280700- ...LAKE AND SUPPLEMENTAL COASTAL OBSERVATIONS... STATION/POSITION TIME TEMP WIND PRES WAVE SWELL AIR SEA DIR/SP/G HT/PER HT/PER/DIR (UTC) (F) (DEG/KT/KT) (MB) (FT/S) (FT/S/D) UPR LAKE MARION NOT AVBL WINYAH BAY 0600 83 230/ 7 1011.0S LAKE MURRAY 0600 85 240/ 10/ 14 1010.5F ACE BASIN NERRS 0600 81 CALM 1012.0F FORT PULASKI 0600 84 240/ 8/ 11 1013.4S SAPELO ISLAND 0600 84 250/ 13 1014.0S $$ ANZ835-935-AMZ111-154-330-350-352-354-374-450-454-472-280700- ...C-MAN AND BUOY OBSERVATIONS... STATION/POSITION TIME TEMP WIND PRES WAVE SWELL AIR SEA DIR/SP/G HT/PER HT/PER/DIR (UTC) (F) (DEG/KT/KT) (MB) (FT/S) (FT/S/D) FOLLY BEACH CMAN 0600 85 230/ 10/ 14 1012.7R BUOY 41004 0600 84 83 220/ 17/ 21 1011.2F 5/ 5 2/10 BUOY 41008 0600 85 85 250/ 17/ 21 1013.2F 3/ 4 2/120/ 8 5E ST. MARYS GA 0600 85 N/A 2/ 3 FRYING PAN BUOY NOT AVBL BUOY 41025 0600 VRB 19/ 23 1009.2F 5/ 5 2/150/ 8 CAPE LOOKOUT NC 0600 82 220/ 13/ 19 1009.3F BUOY 41002 0533 81 81 240/ 17/ 21 1014.5F 5/ 6 2/150/ 9 BUOY 41010 0600 84 84 220/ 17/ 19 1016.6F 3/10 2/140/10 BUOY 41012 NOT AVBL ST AUGUSTINE FL 0600 80 230/ 7/ 9 1016.5F CAPERS NEARSHORE 0500 85 230/ 16/ 19 N/A FRIPP NEARSHORE NOT AVBL $$

USA.gov is the U.S. government's official web portal to all federal, state and local government web resources and services.